This is the latest recevied weather packets stored in our database for station/object KC0RPY. If no packets are shown the sender has not sent any weather packets the latest 10 day(s).
| Time | Temp. | Humidity | Pressure | Rain* | Wind** | Luminosity | Snow |
|---|---|---|---|---|---|---|---|
| 1777652020 | 14.44° C | 44% | 1019.8 hPa | 0 mm | - | 874 W/m² | - |
| 1777651717 | 14.44° C | 46% | 1019.8 hPa | 0 mm | - | 863 W/m² | - |
| 1777651414 | 14.44° C | 45% | 1019.8 hPa | 0 mm | - | 836 W/m² | - |
| 1777651112 | 14.44° C | 46% | 1020.2 hPa | 0 mm | - | 797 W/m² | - |
| 1777650808 | 13.89° C | 45% | 1020.2 hPa | 0 mm | - | 769 W/m² | - |
| 1777650504 | 13.89° C | 43% | 1019.8 hPa | 0 mm | - | 772 W/m² | - |
| 1777650202 | 13.89° C | 45% | 1020.2 hPa | 0 mm | - | 744 W/m² | - |
| 1777649900 | 13.89° C | 45% | 1020.2 hPa | 0 mm | - | 737 W/m² | - |
| 1777649597 | 13.89° C | 47% | 1020.2 hPa | 0 mm | - | 728 W/m² | - |
| 1777649293 | 13.33° C | 46% | 1019.8 hPa | 0 mm | - | 727 W/m² | - |
| 1777648990 | 13.33° C | 44% | 1019.8 hPa | 0 mm | - | 702 W/m² | - |
| 1777648688 | 13.33° C | 47% | 1020.2 hPa | 0 mm | - | 664 W/m² | - |
| 1777648383 | 13.33° C | 48% | 1019.8 hPa | 0 mm | - | 631 W/m² | - |
| 1777648080 | 13.33° C | 50% | 1020.2 hPa | 0 mm | - | 616 W/m² | - |
| 1777647776 | 13.33° C | 49% | 1020.2 hPa | 0 mm | - | 602 W/m² | - |
| 1777647472 | 12.78° C | 52% | 1020.2 hPa | 0 mm | - | 572 W/m² | - |
| 1777647170 | 12.78° C | 55% | 1020.2 hPa | 0 mm | - | 579 W/m² | - |
| 1777646866 | 12.78° C | 52% | 1020.2 hPa | 0 mm | - | 551 W/m² | - |
| 1777646562 | 12.78° C | 55% | 1019.8 hPa | 0 mm | - | 493 W/m² | - |
| 1777646259 | 12.22° C | 52% | 1019.8 hPa | 0 mm | - | 459 W/m² | - |
| 1777645955 | 12.22° C | 55% | 1020.2 hPa | 0 mm | - | 104 W/m² | - |
| 1777645652 | 12.22° C | 55% | 1019.8 hPa | 0 mm | - | 360 W/m² | - |
| 1777645348 | 12.22° C | 54% | 1019.8 hPa | 0 mm | - | 402 W/m² | - |
| 1777645038 | 12.22° C | 57% | 1020.2 hPa | 0 mm | - | 361 W/m² | - |
| 1777644736 | 11.67° C | 56% | 1020.2 hPa | 0 mm | - | 309 W/m² | - |
* Rain latest hour (hover to see other rain measurements)
** Current wind speed in m/s (hover to see current wind gust speed)